Togiak, AK

9:23 PM AKDT on May 25, 2017 (GMT -0800)
Togiak

Weather History for PATG - August, 2013

Change the Weather History Date:

Tuesday, August 20, 2013

  Actual Average Record
Temperature  
Mean Temperature 56 °F -  
Max Temperature 60 °F 56 °F 66 °F (2004)
Min Temperature 51 °F 44 °F 39 °F (2006)
Degree Days  
Heating Degree Days 10    
Growing Degree Days 6 (Base 50)    
Moisture  
Dew Point 51 °F    
Average Humidity 85    
Maximum Humidity 94    
Minimum Humidity 68    
Precipitation  
Precipitation 0.00 in - - ()
Sea Level Pressure  
Sea Level Pressure 29.83 in    
Wind  
Wind Speed 7 mph (WNW)    
Max Wind Speed 14 mph    
Max Gust Speed -    
Visibility 10 miles    
Events      
Averages and records for this station are not official NWS values.
T = Trace of Precipitation, MM = Missing Value Source: NWS Daily Summary

Daily Weather History Graph

Daily Weather History Graph

Search for Another Location

Airport or City:

Trip Planner

Search our weather history database for the weather conditions in past years. The results will help you decide how hot, cold, wet, or windy it might be!

Date:

Astronomy

Aug. 20, 2013 Rise Set
Actual Time 7:12 AM AKDT 10:15 PM AKDT
Civil Twilight 6:25 AM AKDT 11:01 PM AKDT
Nautical Twilight 5:21 AM AKDT 12:05 AM AKDT
Astronomical Twilight 3:32 AM AKDT 1:46 AM AKDT
Moon 9:34 PM AKDT (8/20) 7:06 AM AKDT (8/20)
Length of Visible Light 16h 36m
Length of Day
15h 02m
Full, 100% of the Moon is Illuminated
Aug 20
Full
Aug 20
Full
Aug 28
Last Quarter
Sep 5
New
Sep 12
First Quarter

Hourly Weather History & Observations

Time (AKDT) Temp. Dew Point Humidity Pressure Visibility Wind Dir Wind Speed Gust Speed Precip Events Conditions
12:16 AM 53.6 °F 48.2 °F 82% 29.74 in 10.0 mi North 5.8 mph - N/A   Clear
12:36 AM 53.6 °F 48.2 °F 82% 29.74 in 10.0 mi NNW 10.4 mph - N/A   Clear
12:56 AM 53.6 °F 48.2 °F 82% 29.74 in 10.0 mi NW 6.9 mph - N/A   Clear
1:16 AM 53.6 °F 48.2 °F 82% 29.75 in 10.0 mi North 4.6 mph - N/A   Clear
1:36 AM 53.6 °F 48.2 °F 82% 29.75 in 10.0 mi North 5.8 mph - N/A   Clear
1:56 AM 53.6 °F 48.2 °F 82% 29.76 in 10.0 mi ENE 3.5 mph - N/A   Clear
2:16 AM 51.8 °F 48.2 °F 88% 29.76 in 10.0 mi NE 4.6 mph - N/A   Clear
2:36 AM 53.6 °F 48.2 °F 82% 29.77 in 10.0 mi NE 4.6 mph - N/A   Clear
2:56 AM 51.8 °F 48.2 °F 88% 29.77 in 10.0 mi North 3.5 mph - N/A   Clear
3:16 AM 53.6 °F 48.2 °F 82% 29.78 in 10.0 mi North 5.8 mph - N/A   Clear
3:36 AM 51.8 °F 48.2 °F 88% 29.77 in 10.0 mi East 4.6 mph - N/A   Clear
3:56 AM 53.6 °F 48.2 °F 82% 29.78 in 10.0 mi Calm Calm - N/A   Clear
4:16 AM 53.6 °F 48.2 °F 82% 29.78 in 10.0 mi NW 3.5 mph - N/A   Clear
4:36 AM 53.6 °F 50.0 °F 88% 29.79 in 10.0 mi Calm Calm - N/A   Clear
4:56 AM 53.6 °F 50.0 °F 88% 29.78 in 10.0 mi WNW 6.9 mph - N/A   Partly Cloudy
5:16 AM 53.6 °F 50.0 °F 88% 29.79 in 10.0 mi WNW 4.6 mph - N/A   Clear
5:36 AM 55.4 °F 51.8 °F 88% 29.79 in 10.0 mi NW 8.1 mph - N/A   Partly Cloudy
5:56 AM 53.6 °F 51.8 °F 94% 29.79 in 10.0 mi WNW 8.1 mph - N/A   Clear
6:16 AM 53.6 °F 51.8 °F 94% 29.80 in 10.0 mi WNW 8.1 mph - N/A   Clear
6:36 AM 53.6 °F 51.8 °F 94% 29.80 in 10.0 mi WNW 9.2 mph - N/A   Partly Cloudy
6:56 AM 53.6 °F 51.8 °F 94% 29.80 in 10.0 mi WNW 6.9 mph - N/A   Mostly Cloudy
7:16 AM 53.6 °F 51.8 °F 94% 29.81 in 10.0 mi NW 4.6 mph - N/A   Overcast
7:36 AM 53.6 °F 51.8 °F 94% 29.81 in 10.0 mi NW 4.6 mph - N/A   Overcast
7:56 AM 55.4 °F 51.8 °F 88% 29.82 in 10.0 mi NW 4.6 mph - N/A   Overcast
8:16 AM 55.4 °F 53.6 °F 94% 29.82 in 10.0 mi Calm Calm - N/A   Overcast
8:36 AM 55.4 °F 53.6 °F 94% 29.83 in 10.0 mi Calm Calm - N/A   Overcast
8:56 AM 57.2 °F 53.6 °F 88% 29.83 in 10.0 mi NW 3.5 mph - N/A   Overcast
9:36 AM 57.2 °F 53.6 °F 88% 29.83 in 10.0 mi NNW 4.6 mph - N/A   Overcast
9:56 AM 57.2 °F 53.6 °F 88% 29.84 in 10.0 mi NW 8.1 mph - N/A   Overcast
10:16 AM 57.2 °F 53.6 °F 88% 29.84 in 10.0 mi WNW 5.8 mph - N/A   Overcast
10:36 AM 57.2 °F 53.6 °F 88% 29.85 in 10.0 mi WNW 6.9 mph - N/A   Overcast
10:56 AM 57.2 °F 53.6 °F 88% 29.85 in 10.0 mi WNW 10.4 mph - N/A   Overcast
11:16 AM 57.2 °F 53.6 °F 88% 29.85 in 10.0 mi WNW 6.9 mph - N/A   Overcast
11:36 AM 57.2 °F 53.6 °F 88% 29.85 in 10.0 mi WNW 8.1 mph - N/A   Overcast
11:56 AM 57.2 °F 53.6 °F 88% 29.86 in 10.0 mi NW 10.4 mph - N/A   Overcast
12:16 PM 57.2 °F 53.6 °F 88% 29.86 in 10.0 mi WNW 10.4 mph - N/A   Overcast
12:36 PM 59.0 °F 53.6 °F 82% 29.86 in 10.0 mi WNW 10.4 mph - N/A   Overcast
12:56 PM 59.0 °F 53.6 °F 82% 29.86 in 10.0 mi WNW 11.5 mph - N/A   Overcast
1:16 PM 59.0 °F 53.6 °F 82% 29.87 in 10.0 mi NW 10.4 mph - N/A   Overcast
1:36 PM 59.0 °F 53.6 °F 82% 29.87 in 10.0 mi WNW 9.2 mph - N/A   Overcast
1:56 PM 59.0 °F 53.6 °F 82% 29.87 in 10.0 mi WNW 8.1 mph - N/A   Overcast
2:16 PM 59.0 °F 51.8 °F 77% 29.87 in 10.0 mi NW 8.1 mph - N/A   Overcast
2:36 PM 57.2 °F 51.8 °F 82% 29.88 in 10.0 mi WNW 9.2 mph - N/A   Overcast
2:56 PM 57.2 °F 51.8 °F 82% 29.88 in 10.0 mi WNW 12.7 mph - N/A   Overcast
3:16 PM 59.0 °F 51.8 °F 77% 29.88 in 10.0 mi WNW 8.1 mph - N/A   Overcast
3:36 PM 59.0 °F 51.8 °F 77% 29.88 in 10.0 mi West 10.4 mph - N/A   Overcast
3:56 PM 59.0 °F 51.8 °F 77% 29.88 in 10.0 mi West 8.1 mph - N/A   Overcast
4:16 PM 59.0 °F 51.8 °F 77% 29.87 in 10.0 mi WNW 10.4 mph - N/A   Overcast
4:36 PM 59.0 °F 51.8 °F 77% 29.87 in 10.0 mi WNW 9.2 mph - N/A   Overcast
4:56 PM 60.8 °F 51.8 °F 72% 29.87 in 10.0 mi WNW 9.2 mph - N/A   Overcast
5:16 PM 60.8 °F 51.8 °F 72% 29.86 in 10.0 mi West 8.1 mph - N/A   Overcast
5:36 PM 60.8 °F 50.0 °F 68% 29.86 in 10.0 mi WNW 8.1 mph - N/A   Overcast
5:56 PM 60.8 °F 51.8 °F 72% 29.86 in 10.0 mi West 10.4 mph - N/A   Overcast
6:16 PM 60.8 °F 51.8 °F 72% 29.86 in 10.0 mi West 9.2 mph - N/A   Overcast
6:36 PM 59.0 °F 51.8 °F 77% 29.86 in 10.0 mi WSW 8.1 mph - N/A   Overcast
6:56 PM 57.2 °F 51.8 °F 82% 29.87 in 10.0 mi West 8.1 mph - N/A   Overcast
7:16 PM 57.2 °F 51.8 °F 82% 29.86 in 10.0 mi West 11.5 mph - N/A   Overcast
7:36 PM 57.2 °F 51.8 °F 82% 29.86 in 10.0 mi West 10.4 mph - N/A   Overcast
7:56 PM 57.2 °F 51.8 °F 82% 29.86 in 10.0 mi WSW 11.5 mph - N/A   Overcast
8:36 PM 55.4 °F 51.8 °F 88% 29.86 in 10.0 mi WSW 13.8 mph - N/A   Overcast
8:56 PM 55.4 °F 51.8 °F 88% 29.86 in 10.0 mi WSW 11.5 mph - N/A   Overcast
9:16 PM 53.6 °F 51.8 °F 94% 29.86 in 10.0 mi WSW 12.7 mph - N/A   Overcast
9:36 PM 53.6 °F 51.8 °F 94% 29.86 in 10.0 mi WSW 11.5 mph - N/A   Overcast
9:56 PM 53.6 °F 51.8 °F 94% 29.86 in 10.0 mi West 10.4 mph - N/A   Overcast
10:16 PM 53.6 °F 51.8 °F 94% 29.86 in 10.0 mi West 9.2 mph - N/A   Overcast
10:36 PM 53.6 °F 51.8 °F 94% 29.86 in 10.0 mi WSW 8.1 mph - N/A   Overcast
10:56 PM 53.6 °F 51.8 °F 94% 29.86 in 10.0 mi West 11.5 mph - N/A   Overcast
11:16 PM 53.6 °F 51.8 °F 94% 29.86 in 10.0 mi WSW 9.2 mph - N/A   Mostly Cloudy
11:36 PM 53.6 °F 50.0 °F 88% 29.86 in 10.0 mi West 8.1 mph - N/A   Overcast
11:56 PM 53.6 °F 50.0 °F 88% 29.86 in 10.0 mi West 6.9 mph - N/A   Overcast